NA9VY-8 Weather Reports


time (UTC)temp
C
wind
direction
speed
KPH
gust
KPH
rain 1hr
cm
rain 24hr
cm
rain mn
cm
humidity
%
barometer
mb
20260504000555 16 151 6.4 9.7 0.00 0.00 0.00 53 1016.0
20260504000052 16 173 1.6 6.4 0.00 0.00 0.00 53 1016.4
20260503235550 16 180 3.2 4.8 0.00 0.00 0.00 52 1016.5
20260503235047 16 290 3.2 16.1 0.00 0.00 0.00 53 1016.4
20260503234544 16 74 0.0 4.8 0.00 0.00 0.00 53 1016.3
20260503234043 16 137 6.4 25.7 0.00 0.00 0.00 51 1016.0
20260503233539 16 186 11.3 19.3 0.00 0.00 0.00 51 1015.9
20260503233035 16 90 6.4 11.3 0.00 0.00 0.00 52 1015.8
20260503232532 16 198 4.8 12.9 0.00 0.00 0.00 52 1015.6
20260503232029 16 162 8.0 16.1 0.00 0.00 0.00 50 1015.6
20260503231527 16 146 4.8 16.1 0.00 0.00 0.00 51 1015.8
20260503231024 16 172 3.2 14.5 0.00 0.00 0.00 52 1015.8
20260503230520 16 182 4.8 14.5 0.00 0.00 0.00 53 1015.8
20260503230018 16 150 8.0 11.3 0.00 0.00 0.00 50 1015.9
20260503225515 16 189 9.7 17.7 0.00 0.00 0.00 51 1015.8
20260503225009 16 189 6.4 11.3 0.00 0.00 0.00 52 1016.0
20260503224508 16 159 3.2 8.0 0.00 0.00 0.00 50 1015.9
20260503224005 16 194 9.7 22.5 0.00 0.00 0.00 49 1015.5
20260503223503 16 146 4.8 19.3 0.00 0.00 0.00 52 1016.0
20260503222958 16 134 6.4 12.9 0.00 0.00 0.00 51 1016.2
20260503222457 16 140 4.8 22.5 0.00 0.00 0.00 49 1016.4
20260503221954 16 192 6.4 17.7 0.00 0.00 0.00 49 1016.8
20260503221452 16 225 0.0 20.9 0.00 0.00 0.00 48 1017.2
20260503220949 16 137 6.4 12.9 0.00 0.00 0.00 49 1017.3
20260503220445 16 180 1.6 16.1 0.00 0.00 0.00 51 1017.2
20260503215942 16 201 9.7 22.5 0.00 0.00 0.00 48 1017.3
20260503215439 16 150 11.3 19.3 0.00 0.00 0.00 48 1017.0
20260503214937 16 134 0.0 12.9 0.00 0.00 0.00 49 1017.3
20260503214435 16 147 9.7 12.9 0.00 0.00 0.00 48 1017.4
20260503213932 16 157 6.4 20.9 0.00 0.00 0.00 48 1017.5
20260503213430 16 146 9.7 17.7 0.00 0.00 0.00 48 1017.5
20260503212926 16 157 6.4 14.5 0.00 0.00 0.00 47 1017.8
20260503212423 16 192 6.4 25.7 0.00 0.00 0.00 50 1017.8
20260503211921 16 124 6.4 20.9 0.00 0.00 0.00 47 1018.1
20260503211417 16 242 11.3 20.9 0.00 0.00 0.00 47 1018.3
20260503210913 16 151 4.8 17.7 0.00 0.00 0.00 49 1018.4
20260503210410 16 53 6.4 24.1 0.00 0.00 0.00 49 1018.6
20260503205910 16 198 8.0 11.3 0.00 0.00 0.00 46 1019.1
20260503205408 16 155 9.7 12.9 0.00 0.00 0.00 45 1019.1
20260503204904 17 220 4.8 22.5 0.00 0.00 0.00 44 1019.0
20260503204401 17 154 4.8 24.1 0.00 0.00 0.00 43 1019.2
20260503203858 17 261 4.8 17.7 0.00 0.00 0.00 45 1019.2
20260503203355 17 228 6.4 11.3 0.00 0.00 0.00 44 1019.0
20260503202852 17 282 8.0 20.9 0.00 0.00 0.00 42 1019.0
20260503202350 17 22 8.0 16.1 0.00 0.00 0.00 43 1018.7
20260503201849 17 207 14.5 30.6 0.00 0.00 0.00 50 1019.1
20260503201345 17 194 6.4 17.7 0.00 0.00 0.00 45 1019.0
20260503200843 17 151 8.0 24.1 0.00 0.00 0.00 44 1019.1
20260503200338 16 143 6.4 17.7 0.00 0.00 0.00 45 1019.4
20260503195836 16 141 33.8 33.8 0.00 0.00 0.00 44 1019.4
20260503195332 16 172 8.0 25.7 0.00 0.00 0.00 45 1019.5
20260503194830 16 148 14.5 35.4 0.00 0.00 0.00 46 1019.4
20260503194325 16 226 17.7 22.5 0.00 0.00 0.00 45 1019.7
20260503193822 16 129 4.8 20.9 0.00 0.00 0.00 46 1019.7
20260503193318 16 135 4.8 38.6 0.00 0.00 0.00 47 1019.6
20260503192814 16 145 16.1 33.8 0.00 0.00 0.00 46 1019.8
20260503192309 16 157 16.1 32.2 0.00 0.00 0.00 47 1020.0
20260503191806 16 154 17.7 32.2 0.00 0.00 0.00 47 1020.1
20260503191303 17 45 4.8 20.9 0.00 0.00 0.00 48 1020.3
20260503190800 17 43 6.4 12.9 0.00 0.00 0.00 49 1020.4
20260503190257 17 133 4.8 14.5 0.00 0.00 0.00 47 1020.4
20260503185754 17 238 12.9 16.1 0.00 0.00 0.00 48 1020.6
20260503185249 16 141 12.9 17.7 0.00 0.00 0.00 43 1020.8
20260503184744 16 216 8.0 37.0 0.00 0.00 0.00 46 1020.8
20260503184241 16 79 4.8 17.7 0.00 0.00 0.00 48 1021.3
20260503183737 16 178 6.4 32.2 0.00 0.00 0.00 46 1021.5
20260503183235 16 197 3.2 19.3 0.00 0.00 0.00 47 1021.2
20260503182732 16 101 4.8 19.3 0.00 0.00 0.00 45 1021.6
20260503182231 15 156 14.5 20.9 0.00 0.00 0.00 45 1021.6
20260503181727 16 264 11.3 14.5 0.00 0.00 0.00 43 1021.9
20260503181224 16 221 11.3 17.7 0.00 0.00 0.00 42 1021.8
20260503180720 16 152 16.1 25.7 0.00 0.00 0.00 41 1022.1
20260503180219 16 249 0.0 17.7 0.00 0.00 0.00 44 1022.3
20260503175715 15 188 11.3 25.7 0.00 0.00 0.00 42 1022.5
20260503175213 16 201 14.5 32.2 0.00 0.00 0.00 42 1022.6
20260503174709 16 192 19.3 22.5 0.00 0.00 0.00 41 1022.6
20260503174207 16 240 6.4 14.5 0.00 0.00 0.00 42 1022.6
20260503173702 15 196 12.9 22.5 0.00 0.00 0.00 41 1022.7
20260503173158 15 42 8.0 19.3 0.00 0.00 0.00 45 1022.7
20260503172655 15 151 8.0 14.5 0.00 0.00 0.00 46 1022.7
20260503172153 15 96 9.7 22.5 0.00 0.00 0.00 42 1022.7
20260503171649 16 202 9.7 19.3 0.00 0.00 0.00 42 1023.1
20260503171147 15 241 14.5 30.6 0.00 0.00 0.00 39 1023.3
20260503170643 15 163 3.2 19.3 0.00 0.00 0.00 40 1023.5
20260503170140 15 172 0.0 16.1 0.00 0.00 0.00 43 1023.3
20260503150531 14 176 6.4 14.5 0.00 0.00 0.00 49 1026.1
20260503130926 10 234 4.8 20.9 0.00 0.00 0.00 58 1027.5
20260503130424 10 97 4.8 14.5 0.00 0.00 0.00 60 1027.7
20260503110823 2 180 1.6 8.0 0.00 0.00 0.00 86 1027.3
20260503110320 2 120 8.0 8.0 0.00 0.00 0.00 89 1027.1
20260503100246 0 48 3.2 4.8 0.00 0.00 0.00 97 1027.0
20260503090206 0 35 0.0 3.2 0.00 0.00 0.00 99 1026.8
20260503081138 0 35 0.0 1.6 0.00 0.00 0.00 99 1026.3
20260503080634 0 23 0.0 1.6 0.00 0.00 0.00 99 1026.5
20260503080132 0 36 3.2 4.8 0.00 0.00 0.00 99 1026.3
20260503072608 0 66 0.0 0.0 0.00 0.00 0.00 98 1026.1
20260503072106 0 66 0.0 3.2 0.00 0.00 0.00 98 1026.1
20260503071602 0 55 3.2 3.2 0.00 0.00 0.00 98 1026.3
20260503071059 0 52 3.2 3.2 0.00 0.00 0.00 98 1026.1
20260503070555 0 66 1.6 1.6 0.00 0.00 0.00 98 1026.2
20260503055015 0 20 0.0 3.2 0.00 0.00 0.00 97 1026.2
20260503054510 0 53 3.2 3.2 0.00 0.00 0.00 97 1026.0
20260503054008 0 37 3.2 3.2 0.00 0.00 0.00 97 1026.2
20260503053506 0 45 1.6 3.2 0.00 0.00 0.00 97 1026.1
20260503053002 0 15 0.0 0.0 0.00 0.00 0.00 97 1026.1
20260503052500 0 90 0.0 1.6 0.00 0.00 0.00 97 1026.2
20260503051956 0 74 0.0 3.2 0.00 0.00 0.00 97 1026.0
20260503051452 0 83 1.6 1.6 0.00 0.00 0.00 97 1026.0
20260503050949 0 74 0.0 1.6 0.00 0.00 0.00 97 1026.2
20260503050445 0 77 1.6 3.2 0.00 0.00 0.00 96 1026.2
20260503045943 0 69 0.0 3.2 0.00 0.00 0.00 96 1026.1
20260503045440 1 63 1.6 3.2 0.00 0.00 0.00 96 1026.0
20260503044937 1 55 3.2 3.2 0.00 0.00 0.00 96 1026.0
20260503044433 1 19 3.2 3.2 0.00 0.00 0.00 96 1026.0
20260503043931 1 60 0.0 1.6 0.00 0.00 0.00 96 1025.8
20260503043427 1 41 3.2 4.8 0.00 0.00 0.00 95 1025.8
20260503042924 1 60 1.6 1.6 0.00 0.00 0.00 95 1025.7
20260503042421 1 60 0.0 1.6 0.00 0.00 0.00 95 1025.6
20260503041917 1 60 1.6 1.6 0.00 0.00 0.00 95 1025.5
20260503041414 1 60 0.0 1.6 0.00 0.00 0.00 95 1025.5
20260503040911 1 60 0.0 3.2 0.00 0.00 0.00 95 1025.4
20260503040409 1 74 0.0 1.6 0.00 0.00 0.00 94 1025.3
20260503035906 1 75 0.0 1.6 0.00 0.00 0.00 94 1025.4
20260503035403 1 66 1.6 3.2 0.00 0.00 0.00 94 1025.5
20260503034900 1 57 1.6 3.2 0.00 0.00 0.00 93 1025.3
20260503034358 1 41 0.0 4.8 0.00 0.00 0.00 93 1025.3
20260503033854 2 34 0.0 3.2 0.00 0.00 0.00 93 1025.4
20260503033352 2 35 1.6 1.6 0.00 0.00 0.00 93 1025.1
20260503032850 2 54 1.6 3.2 0.00 0.00 0.00 92 1025.3
20260503032349 2 49 1.6 1.6 0.00 0.00 0.00 92 1025.1
20260503031846 2 63 0.0 3.2 0.00 0.00 0.00 92 1025.2
20260503031343 2 35 0.0 3.2 0.00 0.00 0.00 91 1025.3
20260503030839 2 57 0.0 1.6 0.00 0.00 0.00 90 1025.1
20260503030336 2 60 0.0 1.6 0.00 0.00 0.00 89 1025.2
20260503025832 2 34 3.2 3.2 0.00 0.00 0.00 87 1025.2
20260503025330 2 75 0.0 0.0 0.00 0.00 0.00 87 1025.1
20260503024827 3 60 0.0 1.6 0.00 0.00 0.00 87 1025.0
20260503024324 3 73 0.0 0.0 0.00 0.00 0.00 87 1025.0
20260503023820 3 60 1.6 3.2 0.00 0.00 0.00 86 1024.7
20260503023318 3 69 0.0 3.2 0.00 0.00 0.00 85 1024.8
20260503022814 3 60 1.6 3.2 0.00 0.00 0.00 85 1024.9
20260503022314 3 40 0.0 3.2 0.00 0.00 0.00 84 1024.6
20260503021811 3 40 0.0 3.2 0.00 0.00 0.00 84 1024.5
20260503021308 3 63 3.2 3.2 0.00 0.00 0.00 84 1024.7
20260503020805 3 45 0.0 3.2 0.00 0.00 0.00 82 1024.6
20260503020303 4 29 0.0 1.6 0.00 0.00 0.00 81 1024.6
20260503015758 4 23 1.6 3.2 0.00 0.00 0.00 79 1024.3
20260503015256 4 28 0.0 3.2 0.00 0.00 0.00 79 1024.2
20260503014751 5 15 0.0 1.6 0.00 0.00 0.00 79 1024.0
20260503014249 5 45 3.2 3.2 0.00 0.00 0.00 77 1024.0
20260503013746 5 29 0.0 1.6 0.00 0.00 0.00 78 1023.9
20260503013244 5 32 1.6 3.2 0.00 0.00 0.00 77 1023.8
20260503012741 5 29 0.0 1.6 0.00 0.00 0.00 77 1023.8
20260503012238 6 29 3.2 3.2 0.00 0.00 0.00 77 1023.5
20260503011735 6 14 0.0 0.0 0.00 0.00 0.00 76 1023.7
20260503011232 6 331 0.0 3.2 0.00 0.00 0.00 71 1023.5
20260503010728 6 354 0.0 1.6 0.00 0.00 0.00 67 1023.3
20260503010225 7 28 3.2 4.8 0.00 0.00 0.00 65 1023.3
20260503005723 7 26 1.6 4.8 0.00 0.00 0.00 65 1023.2
20260503005220 8 33 3.2 3.2 0.00 0.00 0.00 62 1023.3
20260503004716 8 18 3.2 3.2 0.00 0.00 0.00 57 1023.2
20260503004214 8 351 3.2 4.8 0.00 0.00 0.00 55 1023.3
20260503003711 8 10 3.2 4.8 0.00 0.00 0.00 53 1023.2
20260503003208 9 332 4.8 4.8 0.00 0.00 0.00 50 1022.9
20260503002704 9 312 3.2 8.0 0.00 0.00 0.00 49 1022.9
20260503002201 10 339 4.8 6.4 0.00 0.00 0.00 51 1022.9
20260503001657 10 332 6.4 11.3 0.00 0.00 0.00 49 1022.8
20260503001154 10 359 8.0 17.7 0.00 0.00 0.00 47 1022.7